Location: Ar Ranvel
(48.3000°N, 4.8833°W)
Time: 09:01:37
(UTC+00:00)

ALOS 2 - Pass Details

Date: 16 June 2021
Orbit: 630 x 632 km, 97.9° (Epoch: 01 August)

Event Time Altitude Azimuth Distance (km) Brightness Sun altitude
Exits shadow 23:49:27 38° 178° (S) 975 3.0 -18.0°
Maximum altitude 23:51:06 76° 257° (WSW) 656 2.6 -18.0°
Drops below altitude 10° 23:55:31 10° 344° (NNW) 2,026 6.4 -18.1°
Sets 23:57:44 0° 346° (NNW) 2,939 7.7 -18.1°
